This demonstration page uses our WeatherBlox Daily Observations layout. Learn more.

Left ArrowRight Arrow

41.55636, -103.73856

Hourly Observations for June 13, 2016

Temp ( °F °C ) Dew Point ( °F °C ) Humidity (%) Winds ( mph kmh ) Pressure ( in mb ) Visibility ( mi km ) Precip ( " mm )
12:53 am 00:53 Clear 60 15.6 57 13.9 90 90 NW 6 9 30.02 1017 10 16 0.00 0.00
1:53 am 01:53 Clear 60 15.6 57 13.9 90 90 WNW 9 15 30.02 1017 10 16 0.00 0.00
2:53 am 02:53 Clear 59 15 56 13.3 90 90 NNW 5 7 30.00 1016 10 16 0.00 0.00
3:53 am 03:53 Clear 59 15 56 13.3 90 90 Calm 29.98 1015 10 16 0.00 0.00
4:53 am 04:53 Clear 59 15 56 13.3 90 90 SE 9 15 30.00 1016 10 16 0.00 0.00
5:53 am 05:53 Sunny 58 14.4 56 13.3 93 93 SE 6 9 30.03 1017 8 13 0.00 0.00
6:53 am 06:53 Sunny 61 16.1 57 13.9 87 87 SE 5 7 30.03 1017 10 16 0.00 0.00
7:53 am 07:53 Sunny 65 18.3 58 14.4 78 78 SSE 7 11 30.03 1017 10 16 0.00 0.00
8:53 am 08:53 Sunny 69 20.6 58 14.4 68 68 S 9 15 30.02 1017 10 16 0.00 0.00
9:53 am 09:53 Sunny 73 22.8 59 15 62 62 SSW 9 15 29.98 1015 10 16 0.00 0.00
10:53 am 10:53 Sunny 76 24.4 59 15 56 56 VRB 6 9 29.96 1015 10 16 0.00 0.00
11:53 am 11:53 Sunny 79 26.1 56 13.3 45 45 S 10 17 29.91 1013 10 16 0.00 0.00
12:53 pm 12:53 Sunny 82 27.8 55 12.8 40 40 SSE 10 17 29.89 1012 10 16 0.00 0.00
1:53 pm 13:53 Sunny 84 28.9 56 13.3 38 38 SSE 17 28 29.84 1011 10 16 0.00 0.00
2:53 pm 14:53 Mostly Sunny 83 28.3 58 14.4 43 43 S 16 26 29.83 1010 10 16 0.00 0.00
3:53 pm 15:53 Sunny 82 27.8 58 14.4 44 44 S 17 28 29.78 1009 10 16 0.00 0.00
4:53 pm 16:53 Sunny 82 27.8 58 14.4 44 44 SSW 10 17 29.77 1008 10 16 0.00 0.00
5:53 pm 17:53 Sunny 81 27.2 57 13.9 44 44 SW 10 17 29.76 1008 10 16 0.00 0.00
6:53 pm 18:53 Cloudy 75 23.9 52 11.1 45 45 W 17 28 29.79 1009 10 16 0.00 0.00
7:05 pm 19:05 Cloudy with Thunderstorms 70 21.1 54 12.2 57 57 W 15 24 29.74 1007 8 13 0.00 0.03
7:23 pm 19:23 Cloudy with Light Rain 67 19.4 57 13.9 71 71 NNW 14 22 29.74 1007 7 11 0.04 1.02
7:53 pm 19:53 Mostly Sunny 67 19.4 53 11.7 61 61 NNW 8 13 29.79 1009 10 16 0.04 1.02
8:53 pm 20:53 Mostly Clear 66 18.9 56 13.3 70 70 W 3 6 29.78 1009 10 16 0.00 0.00
9:53 pm 21:53 Cloudy 66 18.9 57 13.9 73 73 S 5 7 29.82 1010 10 16 0.00 0.00
10:53 pm 22:53 Partly Cloudy 65 18.3 59 15 81 81 NE 7 11 29.79 1009 10 16 0.00 0.00
11:53 pm 23:53 Clear 63 17.2 58 14.4 84 84 ENE 14 22 29.78 1008 10 16 0.00 0.00

Powered by AerisWeather